| time (UTC) | temp C | wind direction | speed KPH | gust KPH | rain 1hr cm | rain 24hr cm | rain mn cm | humidity % | barometer mb |
| 20260502190051 | 24 | 295 | 3.2 | 9.7 | 0.00 | 2.77 | 0.00 | 45 | 1019.8 |
| 20260502184551 | 24 | 30 | 3.2 | 11.3 | 0.00 | 4.50 | 0.00 | 48 | 1020.0 |
| 20260502183045 | 23 | 20 | 4.8 | 16.1 | 0.00 | 4.50 | 0.00 | 50 | 1020.1 |
| 20260502181546 | 23 | 153 | 1.6 | 12.9 | 0.00 | 4.50 | 0.00 | 51 | 1020.3 |
| 20260502163103 | 21 | 65 | 3.2 | 11.3 | 0.00 | 6.07 | 0.00 | 56 | 1020.6 |
| 20260502161549 | 21 | 95 | 1.6 | 8.0 | 0.00 | 6.07 | 0.00 | 60 | 1020.6 |
| 20260502151556 | 19 | 316 | 1.6 | 6.4 | 0.00 | 6.15 | 0.00 | 70 | 1020.5 |
| 20260502123051 | 11 | 0 | 0.0 | 3.2 | 0.00 | 6.71 | 0.00 | 95 | 1018.6 |
| 20260502121547 | 11 | 0 | 0.0 | 1.6 | 0.00 | 6.71 | 0.00 | 94 | 1018.5 |
| 20260502114544 | 11 | 0 | 0.0 | 1.6 | 0.00 | 6.73 | 0.00 | 94 | 1018.3 |
| 20260502113051 | 11 | 0 | 0.0 | 1.6 | 0.00 | 6.73 | 0.00 | 94 | 1018.2 |
| 20260502111545 | 11 | 0 | 0.0 | 3.2 | 0.00 | 6.73 | 0.00 | 94 | 1017.9 |
| 20260502110052 | 11 | 329 | 0.0 | 3.2 | 0.00 | 6.73 | 0.00 | 94 | 1017.9 |
| 20260502104547 | 11 | 0 | 0.0 | 1.6 | 0.00 | 6.93 | 0.00 | 93 | 1017.7 |
| 20260502103044 | 11 | 0 | 0.0 | 0.0 | 0.00 | 6.93 | 0.00 | 93 | 1017.7 |
| 20260502101559 | 11 | 0 | 0.0 | 1.6 | 0.00 | 6.93 | 0.00 | 92 | 1017.5 |
| 20260502100110 | 11 | 0 | 0.0 | 3.2 | 0.00 | 6.93 | 0.00 | 92 | 1017.0 |
| 20260502070050 | 12 | 307 | 0.0 | 3.2 | 0.00 | 8.51 | 0.00 | 95 | 1016.3 |
| 20260502064546 | 12 | 0 | 0.0 | 6.4 | 0.00 | 8.74 | 0.00 | 95 | 1016.1 |
| 20260502063047 | 12 | 269 | 1.6 | 8.0 | 0.00 | 8.74 | 0.00 | 96 | 1015.9 |
| 20260502061553 | 12 | 304 | 0.0 | 8.0 | 0.00 | 8.74 | 0.00 | 96 | 1015.9 |
| 20260502060044 | 12 | 10 | 0.0 | 8.0 | 0.00 | 8.74 | 0.00 | 96 | 1015.8 |
| 20260502054545 | 12 | 53 | 0.0 | 16.1 | 0.00 | 9.40 | 0.00 | 97 | 1015.9 |
| 20260502053047 | 12 | 0 | 0.0 | 4.8 | 0.00 | 9.40 | 0.00 | 97 | 1015.9 |
| 20260502051542 | 12 | 55 | 0.0 | 6.4 | 0.00 | 9.40 | 0.00 | 97 | 1015.8 |
| 20260502050050 | 13 | 0 | 0.0 | 4.8 | 0.00 | 9.40 | 0.00 | 97 | 1015.8 |
| 20260502044543 | 12 | 0 | 0.0 | 4.8 | 0.00 | 9.40 | 9.40 | 97 | 1015.9 |
| 20260502043052 | 12 | 34 | 0.0 | 4.8 | 0.00 | 9.40 | 9.40 | 97 | 1015.9 |
| 20260502041553 | 12 | 80 | 1.6 | 8.0 | 0.00 | 9.40 | 9.40 | 97 | 1015.9 |
| 20260502040044 | 13 | 288 | 1.6 | 8.0 | 0.03 | 9.40 | 9.40 | 97 | 1015.9 |
| 20260502034546 | 13 | 232 | 0.0 | 11.3 | 0.03 | 9.40 | 9.40 | 97 | 1015.6 |
| 20260502033043 | 13 | 295 | 3.2 | 9.7 | 0.05 | 9.40 | 9.40 | 97 | 1015.4 |
| 20260502031549 | 13 | 289 | 1.6 | 9.7 | 0.05 | 9.40 | 9.40 | 97 | 1015.0 |
| 20260502030045 | 13 | 130 | 1.6 | 8.0 | 0.05 | 9.37 | 9.37 | 97 | 1014.3 |
| 20260502024553 | 13 | 0 | 0.0 | 6.4 | 0.08 | 9.37 | 9.37 | 97 | 1014.4 |
| 20260502023045 | 13 | 81 | 1.6 | 8.0 | 0.05 | 9.35 | 9.35 | 97 | 1014.1 |
| 20260502021547 | 13 | 47 | 0.0 | 11.3 | 0.10 | 9.35 | 9.35 | 97 | 1014.3 |
| 20260502020043 | 13 | 69 | 1.6 | 8.0 | 0.18 | 9.32 | 9.32 | 97 | 1013.8 |
| 20260502014546 | 14 | 352 | 1.6 | 11.3 | 0.15 | 9.30 | 9.30 | 97 | 1013.7 |
| 20260502013044 | 14 | 0 | 0.0 | 4.8 | 0.20 | 9.30 | 9.30 | 97 | 1013.1 |
| 20260502011546 | 14 | 51 | 1.6 | 9.7 | 0.20 | 9.25 | 9.25 | 97 | 1012.7 |
| 20260502010041 | 14 | 293 | 1.6 | 8.0 | 0.23 | 9.14 | 9.14 | 97 | 1013.3 |
| 20260502004543 | 14 | 0 | 0.0 | 9.7 | 0.30 | 9.14 | 9.14 | 97 | 1012.1 |
| 20260502003049 | 14 | 27 | 0.0 | 6.4 | 0.30 | 9.09 | 9.09 | 97 | 1012.0 |
| 20260502001546 | 14 | 56 | 0.0 | 8.0 | 0.53 | 9.04 | 9.04 | 97 | 1012.2 |
| 20260502000050 | 14 | 278 | 1.6 | 8.0 | 0.61 | 8.89 | 8.89 | 97 | 1012.1 |
| 20260501234547 | 14 | 274 | 1.6 | 11.3 | 0.56 | 8.84 | 8.84 | 97 | 1011.8 |
| 20260501233043 | 14 | 103 | 1.6 | 9.7 | 0.51 | 8.79 | 8.79 | 97 | 1011.1 |
| 20260501231543 | 15 | 1 | 1.6 | 6.4 | 0.23 | 8.48 | 8.48 | 97 | 1011.7 |
| 20260501230056 | 15 | 342 | 1.6 | 6.4 | 0.15 | 8.28 | 8.28 | 97 | 1011.5 |
| 20260501224545 | 15 | 0 | 1.6 | 12.9 | 0.18 | 8.28 | 8.28 | 97 | 1010.5 |
| 20260501223046 | 15 | 85 | 1.6 | 9.7 | 0.30 | 8.28 | 8.28 | 97 | 1010.7 |
| 20260501221543 | 16 | 93 | 0.0 | 4.8 | 0.41 | 8.26 | 8.26 | 97 | 1010.9 |
| 20260501220048 | 16 | 85 | 0.0 | 4.8 | 0.38 | 8.13 | 8.13 | 98 | 1011.4 |
| 20260501214554 | 16 | 0 | 1.6 | 9.7 | 0.51 | 8.10 | 8.10 | 98 | 1011.2 |
| 20260501213045 | 16 | 281 | 1.6 | 4.8 | 0.61 | 7.98 | 7.98 | 97 | 1011.5 |
| 20260501211553 | 16 | 7 | 1.6 | 8.0 | 0.76 | 7.85 | 7.85 | 97 | 1011.0 |
| 20260501210048 | 16 | 0 | 0.0 | 9.7 | 0.71 | 7.75 | 7.75 | 97 | 1009.8 |
| 20260501204619 | 16 | 60 | 3.2 | 8.0 | 0.56 | 7.59 | 7.59 | 97 | 1009.7 |
| 20260501203047 | 16 | 308 | 0.0 | 8.0 | 0.36 | 7.37 | 7.37 | 97 | 1010.5 |
| 20260501201547 | 16 | 271 | 1.6 | 8.0 | 0.43 | 7.09 | 7.09 | 97 | 1010.2 |
| 20260501200044 | 16 | 0 | 0.0 | 4.8 | 0.41 | 7.04 | 7.04 | 97 | 1009.7 |
| 20260501194544 | 16 | 260 | 0.0 | 3.2 | 0.71 | 7.04 | 7.04 | 97 | 1009.4 |
| 20260501193047 | 16 | 0 | 0.0 | 4.8 | 1.19 | 7.01 | 7.01 | 97 | 1009.4 |
| 20260501191543 | 16 | 316 | 0.0 | 8.0 | 1.02 | 6.65 | 6.65 | 97 | 1009.7 |